sat.trackr.live / text

‹ back to catalog

KUIPER-00172

NORAD 65785 · 2025-217Z

PAYLOAD ACTIVE UNKNOWN

§ Identity

Operator
Country
US
Launch date
2025-09-25
Launch site
AFETR
Launch vehicle
Mass (kg)
RCS (m²)

External: N2YO · Heavens-Above · Gunter

§ Orbital elements

Epoch: 2026-09-20T15:59:18.289824Z

Period
97.30 min
Inclination
51.9010°
Eccentricity
0.0001081
Mean motion
14.79928809 rev/d
Perigee alt
628.8 km
Apogee alt
630.3 km
Semi-major
7,007.7 km
B*
6.4083e-5
RAAN
238.4142°
Arg perigee
50.6854°
Mean anomaly
309.4205°
Rev number
5,406

§ Raw data

KUIPER-001721 65785U 25217Z   26263.66618391  .00000267  00000+0  64083-4 0  99962 65785  51.9010 238.4142 0001081  50.6854 309.4205 14.79928809 54066

JSON: /api/v1/satellites/65785 · /tle

For live sub-satellite position, see the globe view (requires WebGL).

§ Visibility from observer

Set your observer location to see the next 7 days of passes ≥ 10°. The values pass through the URL so the page stays shareable.

No JS? Fill the form by hand. The geolocation button needs JavaScript.